Change the Weather History Date:

Wednesday, June 5, 2013

  Actual Average Record
Temperature  
Mean Temperature 57 °F -  
Max Temperature 66 °F 78 °F 96 °F (1990)
Min Temperature 48 °F 51 °F 37 °F (1998)
Degree Days  
Heating Degree Days 8    
Growing Degree Days 7 (Base 50)    
Moisture  
Dew Point 46 °F    
Average Humidity 70    
Maximum Humidity 94    
Minimum Humidity 42    
Precipitation  
Precipitation 0.28 in - - ()
Sea Level Pressure  
Sea Level Pressure 30.15 in    
Wind  
Wind Speed 10 mph (North)    
Max Wind Speed 18 mph    
Max Gust Speed 23 mph    
Visibility 10 miles    
Events Rain    
Averages and records for this station are not official NWS values.
T = Trace of Precipitation, MM = Missing Value Source: NWS Daily Summary

Daily Weather History Graph

Daily Weather History Graph

Search for Another Location

Airport or City:

Trip Planner

Search our weather history database for the weather conditions in past years. The results will help you decide how hot, cold, wet, or windy it might be!

Date:

Astronomy

Jun. 05, 2013 Rise Set
Actual Time 5:15 AM MDT 8:16 PM MDT
Civil Twilight 4:42 AM MDT 8:49 PM MDT
Nautical Twilight 3:59 AM MDT 9:32 PM MDT
Astronomical Twilight 3:10 AM MDT 10:21 PM MDT
Moon 3:21 AM MDT 5:43 PM MDT
Length of Visible Light 16h 07m
Length of Day
15h 01m
Waning Crescent, 8% of the Moon is Illuminated
Jun 5
Waning Crescent
Jun 8
New
Jun 16
First Quarter
Jun 23
Full
Jun 29
Last Quarter

Hourly Weather History & Observations

Time (MDT) Temp. Dew Point Humidity Pressure Visibility Wind Dir Wind Speed Gust Speed Precip Events Conditions
12:37 AM 53.6 °F 50.0 °F 88% 30.15 in 10.0 mi NNE 16.1 mph 19.6 mph N/A   Overcast
12:57 AM 53.6 °F 50.0 °F 88% 30.15 in 10.0 mi North 18.4 mph 23.0 mph 0.01 in   Drizzle
1:17 AM 51.8 °F 50.0 °F 94% 30.15 in 7.0 mi NNE 16.1 mph 20.7 mph 0.03 in Rain Light Rain
1:38 AM 51.8 °F 48.2 °F 88% 30.17 in 7.0 mi NNE 13.8 mph - 0.07 in Rain Rain
1:57 AM 51.8 °F 48.2 °F 88% 30.15 in 10.0 mi NNE 9.2 mph - N/A Rain Rain
2:17 AM 51.8 °F 48.2 °F 88% 30.15 in 10.0 mi NE 9.2 mph - N/A Rain Light Rain
2:37 AM 51.8 °F 48.2 °F 88% 30.16 in 10.0 mi NE 9.2 mph - 0.01 in Rain Light Rain
3:17 AM 51.8 °F 48.2 °F 88% 30.16 in 7.0 mi NNE 9.2 mph - 0.06 in Rain Rain
3:57 AM 50.0 °F 46.4 °F 87% 30.16 in 10.0 mi NNE 11.5 mph - N/A Rain Light Rain
4:17 AM 50.0 °F 46.4 °F 87% 30.16 in 10.0 mi NNE 12.7 mph 18.4 mph N/A Rain Rain
4:39 AM 50.0 °F 46.4 °F 87% 30.16 in 10.0 mi NNE 9.2 mph - 0.01 in Rain Rain
4:57 AM 48.2 °F 46.4 °F 93% 30.17 in 10.0 mi NE 9.2 mph - N/A Rain Light Rain
5:17 AM 48.2 °F 44.6 °F 87% 30.18 in 10.0 mi North 5.8 mph - 0.01 in Rain Light Rain
5:37 AM 48.2 °F 44.6 °F 87% 30.19 in 10.0 mi North 4.6 mph - 0.03 in Rain Rain
5:57 AM 48.2 °F 44.6 °F 87% 30.20 in 10.0 mi North 3.5 mph - N/A   Light Drizzle
6:35 AM 49.1 °F 45.5 °F 87% 30.19 in 10.0 mi NW 4.6 mph - 0.02 in Rain Rain
6:55 AM 49.3 °F 45.5 °F 87% 30.18 in 10.0 mi NNW 5.8 mph - 0.02 in Rain Rain
7:15 AM 49.3 °F 46.0 °F 89% 30.19 in 7.0 mi NW 5.8 mph - 0.03 in Rain Rain
7:35 AM 49.5 °F 45.9 °F 87% 30.18 in 10.0 mi NW 6.9 mph - 0.06 in Rain Light Rain
7:55 AM 50.0 °F 46.4 °F 87% 30.18 in 10.0 mi NW 6.9 mph - 0.06 in   Light Drizzle
8:15 AM 50.5 °F 46.6 °F 86% 30.19 in 10.0 mi Calm Calm - N/A Rain Rain
8:35 AM 51.8 °F 46.0 °F 81% 30.19 in 10.0 mi NNW 9.2 mph - N/A   Overcast
8:55 AM 52.5 °F 46.2 °F 79% 30.19 in 10.0 mi NNW 6.9 mph - 0.01 in Rain Light Rain
9:15 AM 52.7 °F 45.7 °F 77% 30.19 in 10.0 mi NNW 6.9 mph - N/A   Overcast
9:35 AM 53.2 °F 45.5 °F 75% 30.19 in 10.0 mi NNW 8.1 mph - N/A   Overcast
9:55 AM 53.6 °F 46.0 °F 76% 30.19 in 10.0 mi NNW 10.4 mph - N/A   Overcast
10:15 AM 54.0 °F 45.3 °F 73% 30.19 in 10.0 mi NNW 9.2 mph - N/A   Overcast
10:35 AM 55.0 °F 46.2 °F 72% 30.18 in 10.0 mi NNW 10.4 mph - N/A   Overcast
10:55 AM 57.2 °F 46.6 °F 68% 30.18 in 10.0 mi NNW 11.5 mph - N/A   Mostly Cloudy
11:15 AM 58.3 °F 46.4 °F 65% 30.18 in 10.0 mi North 11.5 mph 16.1 mph N/A   Mostly Cloudy
11:35 AM 58.6 °F 46.6 °F 64% 30.18 in 10.0 mi NW 10.4 mph - N/A   Overcast
11:55 AM 59.9 °F 45.5 °F 59% 30.17 in 10.0 mi NNW 5.8 mph - N/A   Overcast
12:15 PM 60.4 °F 46.6 °F 60% 30.16 in 10.0 mi NNW 11.5 mph 16.1 mph N/A   Mostly Cloudy
12:35 PM 61.7 °F 46.9 °F 58% 30.15 in 10.0 mi NNW 10.4 mph 18.4 mph N/A   Mostly Cloudy
12:55 PM 63.0 °F 46.2 °F 54% 30.15 in 10.0 mi NNW 5.8 mph 16.1 mph N/A   Overcast
1:15 PM 63.5 °F 46.6 °F 54% 30.14 in 10.0 mi NNE 5.8 mph 16.1 mph N/A   Mostly Cloudy
1:35 PM 63.0 °F 46.0 °F 54% 30.14 in 10.0 mi North 6.9 mph - N/A   Mostly Cloudy
1:55 PM 64.2 °F 47.5 °F 55% 30.13 in 10.0 mi NNW 11.5 mph - N/A   Scattered Clouds
2:15 PM 64.4 °F 46.4 °F 52% 30.12 in 10.0 mi North 5.8 mph 16.1 mph N/A   Scattered Clouds
2:35 PM 64.4 °F 46.0 °F 51% 30.12 in 10.0 mi NNW 9.2 mph - N/A   Scattered Clouds
2:55 PM 65.1 °F 45.7 °F 49% 30.12 in 10.0 mi NNW 8.1 mph 17.3 mph N/A   Scattered Clouds
3:15 PM 65.5 °F 45.7 °F 49% 30.12 in 10.0 mi NNW 10.4 mph - N/A   Clear
3:35 PM 65.7 °F 44.8 °F 47% 30.11 in 10.0 mi NNW 10.4 mph - N/A   Scattered Clouds
3:55 PM 66.2 °F 45.5 °F 47% 30.12 in 10.0 mi NNE 9.2 mph - N/A   Mostly Cloudy
4:15 PM 66.0 °F 43.9 °F 45% 30.11 in 10.0 mi North 4.6 mph - N/A   Mostly Cloudy
4:35 PM 66.6 °F 45.0 °F 46% 30.11 in 10.0 mi North 9.2 mph - N/A   Mostly Cloudy
4:55 PM 66.0 °F 43.3 °F 44% 30.11 in 10.0 mi North 9.2 mph - N/A   Scattered Clouds
5:15 PM 66.0 °F 43.7 °F 44% 30.11 in 10.0 mi North 8.1 mph - N/A   Scattered Clouds
5:35 PM 66.6 °F 42.8 °F 42% 30.10 in 10.0 mi North 6.9 mph - N/A   Scattered Clouds
5:55 PM 65.3 °F 44.2 °F 46% 30.10 in 10.0 mi NNW 4.6 mph - N/A   Mostly Cloudy
6:15 PM 64.9 °F 44.6 °F 48% 30.10 in 10.0 mi NE 5.8 mph - N/A   Mostly Cloudy
6:35 PM 64.9 °F 43.3 °F 45% 30.10 in 10.0 mi NNE 3.5 mph - N/A   Scattered Clouds
6:55 PM 65.5 °F 44.6 °F 47% 30.10 in 10.0 mi NE 8.1 mph - N/A   Scattered Clouds
7:15 PM 64.6 °F 45.7 °F 50% 30.10 in 10.0 mi NE 4.6 mph - N/A   Scattered Clouds
7:35 PM 63.7 °F 47.3 °F 55% 30.11 in 10.0 mi NE 3.5 mph - N/A   Clear
7:55 PM 61.2 °F 49.1 °F 65% 30.11 in 10.0 mi NNE 4.6 mph - N/A   Clear
8:15 PM 57.9 °F 50.5 °F 76% 30.11 in 10.0 mi NNE 4.6 mph - N/A   Clear
8:35 PM 55.8 °F 49.6 °F 80% 30.12 in 10.0 mi NNE 5.8 mph - N/A   Clear
8:55 PM 57.2 °F 47.3 °F 69% 30.12 in 10.0 mi NE 4.6 mph - N/A   Clear
9:15 PM 55.9 °F 47.3 °F 73% 30.14 in 10.0 mi ENE 4.6 mph - N/A   Clear
9:35 PM 55.4 °F 46.6 °F 72% 30.14 in 10.0 mi ENE 3.5 mph - N/A   Clear
9:55 PM 54.5 °F 46.9 °F 76% 30.15 in 10.0 mi Calm Calm - N/A   Clear
10:15 PM 54.5 °F 46.4 °F 74% 30.15 in 10.0 mi ENE 5.8 mph - N/A   Clear
10:35 PM 53.8 °F 46.4 °F 76% 30.15 in 10.0 mi ENE 3.5 mph - N/A   Clear
10:55 PM 51.8 °F 46.4 °F 82% 30.15 in 10.0 mi NE 3.5 mph - N/A   Clear
11:15 PM 50.9 °F 46.4 °F 85% 30.15 in 10.0 mi NE 3.5 mph - N/A   Clear
11:35 PM 49.3 °F 45.7 °F 87% 30.14 in 10.0 mi NE 3.5 mph - N/A   Clear
11:55 PM 49.6 °F 45.5 °F 86% 30.14 in 10.0 mi NE 4.6 mph - N/A   Clear